Location: Birkenwerder
(52.6919°N, 13.2774°E)
Time: 00:16:45
(UTC+00:00)

Cosmos 1570 Rocket - Pass Details

Date: 05 October 2020
Orbit: 763 x 788 km, 74.1° (Epoch: 24 October)

Event Time Altitude Azimuth Distance (km) Brightness Sun altitude
Exits shadow 01:42:48 54° 28° (NNE) 960 4.6 -31.1°
Drops below altitude 10° 01:46:55 10° 26° (NNE) 2,364 7.3 -30.6°
Sets 01:49:19 0° 26° (NNE) 3,296 8.2 -30.4°
